Flag for Germany Weather past 2 weeks in Schwerte, North Rhine-Westphalia, Germany

Now
50 °F

Thundershowers. Broken clouds.


Feels Like: 46 °F
Forecast: 50 / 64 °F
Wind: 10 mph from West

Location: Dortmund / Wickede

Current Time: Jul 29, 2015 at 2:05:46 PM

Latest Report: Jul 29, 2015 at 1:50 PM


Visibility: N/A

Pressure: 29.77 "Hg

Humidity: 88%

Dew point: 46 °F

Location of SchwerteLocation

Historic Weather in Schwerte — Graph

°F

Schwerte temperature yesterday

Maximum temperature yesterday: 64 °F (at 3:20 PM)
Minimum temperature yesterday: 55 °F (at 5:20 AM)
Average temperature yesterday: 59 °F

Past Weeks' High & Low Weather Summary

 TemperatureHumidityPressure
High86 °F (Jul 17, 1:50 PM)94% (Jul 15, 5:20 AM)30.12 "Hg (Jul 15, 5:20 AM)
Low50 °F (Jul 26, 5:20 AM)27% (Jul 17, 3:20 PM)29.50 "Hg (Jul 25, 7:50 AM)
Average66 °F67%29.88 "Hg
* Reported Jul 14 12:20 PM — Jul 29 12:50 PM, Schwerte, Weather by CustomWeather, © 2015

Note: Actual official high and low records may vary slightly from our data, if they occured in-between our weather recording intervals... More about our weather records

Advertising

Schwerte weather history for previous 24 hours

 ConditionsComfort  
Time TempWeatherWind HumidityBarometerVisibility
12:50 PM
Wed, Jul 29
52 °FLight rain. Partly sunny.17 mph77%29.74 "HgN/A
12:20 PM57 °FSprinkles. Partly sunny.9 mph77%29.71 "HgN/A
11:50 AM55 °FSprinkles. Partly sunny.9 mph82%29.71 "HgN/A
11:20 AM52 °FSleet. Partly sunny.16 mph82%29.74 "Hg4 mi
10:56 AM59 °FThundershowers. Partly sunny.14 mph59%29.74 "HgN/A
10:20 AM57 °FPartly sunny.16 mph67%29.74 "HgN/A
9:20 AM57 °FPartly sunny.15 mph67%29.74 "HgN/A
8:50 AM55 °FScattered clouds.17 mph72%29.74 "HgN/A
8:20 AM55 °FPartly sunny.14 mph72%29.74 "HgN/A
7:50 AM55 °FPartly sunny.13 mph72%29.74 "HgN/A
7:20 AM54 °FPartly sunny.12 mph77%29.74 "HgN/A
6:50 AM54 °FPartly sunny.13 mph77%29.74 "HgN/A
6:20 AM54 °FPassing clouds.12 mph77%29.74 "HgN/A
5:50 AM54 °FPassing clouds.14 mph77%29.74 "HgN/A
5:20 AM54 °FPassing clouds.15 mph77%29.74 "HgN/A
10:50 PM
Tue, Jul 28
57 °FClear.12 mph55%29.74 "Hg10 mi
10:20 PM57 °FSunny.13 mph59%29.74 "Hg10 mi
9:50 PM55 °FCool.9 mph67%29.74 "HgN/A
9:20 PM59 °FSunny.13 mph59%29.74 "Hg10 mi
8:50 PM59 °FSunny.12 mph63%29.74 "Hg10 mi
8:20 PM61 °FPassing clouds.14 mph55%29.71 "HgN/A
7:20 PM61 °FRefreshingly cool.15 mph59%29.71 "HgN/A
6:50 PM61 °FSunny.16 mph59%29.71 "Hg10 mi
6:20 PM61 °FPartly sunny.16 mph55%29.71 "HgN/A
5:50 PM61 °FSunny.17 mph59%29.71 "Hg10 mi
5:20 PM61 °FBroken clouds.20 mph59%29.71 "HgN/A
4:50 PM63 °FPartly sunny.17 mph56%29.71 "HgN/A
4:20 PM61 °FSunny.24 mph59%29.71 "Hg10 mi
3:50 PM61 °FScattered clouds.26 mph59%29.71 "HgN/A
3:20 PM64 °FScattered clouds.21 mph60%29.71 "HgN/A
2:50 PM61 °FPartly sunny.18 mph68%29.71 "HgN/A
2:20 PM59 °FBroken clouds.18 mph72%29.71 "HgN/A
Weather by CustomWeather, © 2015

See weather overviewHow to use our weather pages